This is the latest recevied weather packets stored in our database for station/object N5VIS. If no packets are shown the sender has not sent any weather packets the latest 10 day(s).
| Time | Temp. | Humidity | Pressure | Rain* | Wind** | Luminosity | Snow |
|---|---|---|---|---|---|---|---|
| 1777696712 | 13.33° C | 99% | 1012.2 hPa | 0 mm | - | - | - |
| 1777696410 | 13.33° C | 99% | 1012.8 hPa | 3.05 mm | - | - | - |
| 1777696108 | 13.33° C | 99% | 1012.7 hPa | 6.1 mm | - | - | - |
| 1777695806 | 13.33° C | 99% | 1011.4 hPa | 4.32 mm | - | - | - |
| 1777695503 | 13.33° C | 99% | 1012.5 hPa | 6.1 mm | - | - | - |
| 1777695200 | 13.89° C | 99% | 1013.3 hPa | 8.89 mm | - | - | - |
| 1777694898 | 13.89° C | 99% | 1013.4 hPa | 10.67 mm | - | - | - |
| 1777694594 | 13.89° C | 99% | 1014.2 hPa | 6.1 mm | - | - | - |
| 1777694290 | 13.89° C | 99% | 1014.7 hPa | 3.05 mm | - | - | - |
| 1777693987 | 13.89° C | 99% | 1014.2 hPa | 1.78 mm | - | - | - |
| 1777693684 | 13.89° C | 99% | 1013.6 hPa | 0 mm | - | - | - |
| 1777693383 | 13.89° C | 99% | 1013.6 hPa | 0 mm | - | - | - |
| 1777693080 | 13.89° C | 99% | 1013.7 hPa | 0 mm | - | - | - |
| 1777692778 | 13.89° C | 99% | 1013.6 hPa | 1.27 mm | - | - | - |
| 1777692474 | 13.89° C | 99% | 1013.7 hPa | 1.27 mm | - | - | - |
| 1777692171 | 13.89° C | 99% | 1013.4 hPa | 1.78 mm | - | - | - |
| 1777691869 | 13.89° C | 99% | 1013.5 hPa | 4.83 mm | - | - | - |
| 1777691566 | 13.89° C | 99% | 1013.6 hPa | 7.87 mm | - | - | - |
| 1777691265 | 13.89° C | 99% | 1014.1 hPa | 8.89 mm | - | - | - |
| 1777690962 | 13.89° C | 99% | 1014.3 hPa | 8.89 mm | - | - | - |
| 1777690659 | 13.89° C | 99% | 1014.8 hPa | 6.1 mm | - | - | - |
| 1777690357 | 13.89° C | 99% | 1014.4 hPa | 4.32 mm | - | - | - |
| 1777690055 | 13.89° C | 99% | 1013.9 hPa | 6.6 mm | - | - | - |
| 1777689752 | 13.89° C | 99% | 1013.2 hPa | 7.87 mm | - | - | - |
| 1777689450 | 13.89° C | 99% | 1013.5 hPa | 7.87 mm | - | - | - |
* Rain latest hour (hover to see other rain measurements)
** Current wind speed in m/s (hover to see current wind gust speed)